| time (UTC) | temp C | wind direction | speed KPH | gust KPH | rain 1hr cm | rain 24hr cm | rain mn cm | humidity % | barometer mb |
| 20260504214503 | 22 | 360 | 6.4 | 16.1 | 0.00 | 0.00 | 0.00 | 41 | 1009.3 |
| 20260504213604 | 22 | 360 | 8.0 | 17.7 | 0.00 | 0.00 | 0.00 | 38 | 1009.2 |
| 20260504212704 | 22 | 360 | 6.4 | 16.1 | 0.00 | 0.00 | 0.00 | 37 | 1009.2 |
| 20260504212018 | 22 | 360 | 6.4 | 16.1 | 0.00 | 0.00 | 0.00 | 41 | 1009.2 |
| 20260504210904 | 22 | 360 | 6.4 | 17.7 | 0.00 | 0.00 | 0.00 | 37 | 1009.2 |
| 20260504210003 | 22 | 360 | 6.4 | 16.1 | 0.00 | 0.00 | 0.00 | 37 | 1009.3 |
| 20260504205404 | 22 | 360 | 6.4 | 19.3 | 0.00 | 0.00 | 0.00 | 38 | 1009.3 |
| 20260504204722 | 22 | 360 | 6.4 | 20.9 | 0.00 | 0.00 | 0.00 | 40 | 1009.4 |
| 20260504203604 | 23 | 360 | 6.4 | 20.9 | 0.00 | 0.00 | 0.00 | 39 | 1009.5 |
| 20260504202703 | 23 | 360 | 6.4 | 17.7 | 0.00 | 0.00 | 0.00 | 37 | 1009.5 |
| 20260504201803 | 22 | 360 | 8.0 | 19.3 | 0.00 | 0.00 | 0.00 | 37 | 1009.6 |
| 20260504201121 | 22 | 360 | 8.0 | 20.9 | 0.00 | 0.00 | 0.00 | 35 | 1009.8 |
| 20260504200219 | 23 | 360 | 6.4 | 17.7 | 0.00 | 0.00 | 0.00 | 41 | 1009.8 |
| 20260504195403 | 23 | 360 | 4.8 | 14.5 | 0.00 | 0.00 | 0.00 | 40 | 1009.9 |
| 20260504194503 | 22 | 360 | 6.4 | 19.3 | 0.00 | 0.00 | 0.00 | 37 | 1009.9 |
| 20260504193820 | 22 | 360 | 9.7 | 19.3 | 0.00 | 0.00 | 0.00 | 34 | 1009.9 |
| 20260504192704 | 22 | 360 | 8.0 | 17.7 | 0.00 | 0.00 | 0.00 | 36 | 1010.1 |
| 20260504191803 | 22 | 360 | 8.0 | 24.1 | 0.00 | 0.00 | 0.00 | 37 | 1010.3 |
| 20260504190903 | 22 | 360 | 8.0 | 22.5 | 0.00 | 0.00 | 0.00 | 39 | 1010.4 |
| 20260504190003 | 22 | 360 | 6.4 | 17.7 | 0.00 | 0.00 | 0.00 | 37 | 1010.5 |
| 20260504185404 | 22 | 360 | 8.0 | 17.7 | 0.00 | 0.00 | 0.00 | 37 | 1010.6 |
| 20260504184503 | 22 | 360 | 9.7 | 22.5 | 0.00 | 0.00 | 0.00 | 37 | 1010.6 |
| 20260504183603 | 22 | 360 | 9.7 | 19.3 | 0.00 | 0.00 | 0.00 | 37 | 1010.6 |
| 20260504182704 | 22 | 360 | 8.0 | 19.3 | 0.00 | 0.00 | 0.00 | 37 | 1010.6 |
| 20260504181803 | 22 | 360 | 8.0 | 24.1 | 0.00 | 0.00 | 0.00 | 38 | 1010.8 |
| 20260504181118 | 22 | 360 | 8.0 | 24.1 | 0.00 | 0.00 | 0.00 | 39 | 1010.9 |
| 20260504180003 | 22 | 360 | 8.0 | 17.7 | 0.00 | 0.00 | 0.00 | 38 | 1011.1 |
| 20260504175404 | 22 | 360 | 8.0 | 20.9 | 0.00 | 0.00 | 0.00 | 35 | 1011.3 |
| 20260504174719 | 22 | 360 | 9.7 | 22.5 | 0.00 | 0.00 | 0.00 | 39 | 1011.2 |
| 20260504173603 | 22 | 360 | 8.0 | 17.7 | 0.00 | 0.00 | 0.00 | 37 | 1011.5 |
| 20260504172918 | 22 | 360 | 9.7 | 29.0 | 0.00 | 0.00 | 0.00 | 40 | 1011.5 |
| 20260504172021 | 21 | 360 | 8.0 | 29.0 | 0.00 | 0.00 | 0.00 | 40 | 1011.5 |
| 20260504170904 | 21 | 360 | 8.0 | 17.7 | 0.00 | 0.00 | 0.00 | 39 | 1011.9 |
| 20260504150903 | 20 | 360 | 6.4 | 16.1 | 0.00 | 0.00 | 0.00 | 52 | 1013.1 |
| 20260504140904 | 17 | 360 | 6.4 | 17.7 | 0.00 | 0.00 | 0.00 | 58 | 1013.3 |
| 20260504130218 | 15 | 360 | 11.3 | 27.4 | 0.00 | 0.00 | 0.00 | 72 | 1013.9 |
| 20260504100220 | 9 | 360 | 1.6 | 6.4 | 0.00 | 0.00 | 0.00 | 83 | 1014.4 |
| 20260504081803 | 9 | 360 | 1.6 | 8.0 | 0.00 | 0.00 | 0.00 | 75 | 1014.5 |
| 20260504080903 | 10 | 360 | 3.2 | 9.7 | 0.00 | 0.00 | 0.00 | 74 | 1014.6 |
| 20260504050004 | 5 | 360 | 0.0 | 6.4 | 0.00 | 0.00 | 0.00 | 80 | 1014.2 |
| 20260504045403 | 5 | 360 | 0.0 | 6.4 | 0.00 | 0.00 | 0.00 | 81 | 1014.2 |
| 20260504044504 | 5 | 360 | 0.0 | 1.6 | 0.00 | 0.00 | 0.00 | 81 | 1014.2 |
| 20260504043603 | 5 | 0 | 0.0 | 0.0 | 0.00 | 0.00 | 0.00 | 81 | 1014.2 |
| 20260504042704 | 5 | 0 | 0.0 | 0.0 | 0.00 | 0.00 | 0.00 | 81 | 1014.1 |
| 20260504041804 | 5 | 0 | 0.0 | 0.0 | 0.00 | 0.00 | 0.00 | 80 | 1014.2 |
| 20260504041121 | 5 | 0 | 0.0 | 0.0 | 0.00 | 0.00 | 0.00 | 79 | 1014.1 |
| 20260504040218 | 5 | 0 | 0.0 | 0.0 | 0.00 | 0.00 | 0.00 | 79 | 1014.0 |
| 20260504035404 | 5 | 0 | 0.0 | 0.0 | 0.00 | 0.00 | 0.00 | 78 | 1013.9 |
| 20260504034503 | 5 | 0 | 0.0 | 0.0 | 0.00 | 0.00 | 0.00 | 78 | 1013.8 |
| 20260504033604 | 6 | 0 | 0.0 | 0.0 | 0.00 | 0.00 | 0.00 | 78 | 1013.7 |
| 20260504032703 | 6 | 360 | 0.0 | 1.6 | 0.00 | 0.00 | 0.00 | 77 | 1013.7 |
| 20260504031804 | 6 | 360 | 0.0 | 1.6 | 0.00 | 0.00 | 0.00 | 77 | 1013.6 |
| 20260504030903 | 6 | 360 | 0.0 | 1.6 | 0.00 | 0.00 | 0.00 | 77 | 1013.6 |
| 20260504030219 | 6 | 360 | 0.0 | 1.6 | 0.00 | 0.00 | 0.00 | 76 | 1013.6 |
| 20260504025404 | 6 | 360 | 0.0 | 1.6 | 0.00 | 0.00 | 0.00 | 75 | 1013.6 |
| 20260504024718 | 6 | 360 | 0.0 | 3.2 | 0.00 | 0.00 | 0.00 | 75 | 1013.6 |
| 20260504023603 | 6 | 0 | 0.0 | 0.0 | 0.00 | 0.00 | 0.00 | 73 | 1013.5 |
| 20260504022703 | 6 | 360 | 0.0 | 1.6 | 0.00 | 0.00 | 0.00 | 72 | 1013.6 |
| 20260504022020 | 6 | 360 | 0.0 | 1.6 | 0.00 | 0.00 | 0.00 | 72 | 1013.6 |
| 20260504020903 | 7 | 0 | 0.0 | 0.0 | 0.00 | 0.00 | 0.00 | 70 | 1013.7 |
| 20260504020220 | 7 | 360 | 0.0 | 1.6 | 0.00 | 0.00 | 0.00 | 69 | 1013.7 |
| 20260504015403 | 7 | 0 | 0.0 | 0.0 | 0.00 | 0.00 | 0.00 | 68 | 1013.6 |
| 20260504014504 | 7 | 360 | 0.0 | 1.6 | 0.00 | 0.00 | 0.00 | 67 | 1013.6 |
| 20260504013604 | 7 | 0 | 0.0 | 0.0 | 0.00 | 0.00 | 0.00 | 65 | 1013.5 |
| 20260504012704 | 7 | 0 | 0.0 | 0.0 | 0.00 | 0.00 | 0.00 | 63 | 1013.3 |
| 20260504011803 | 8 | 0 | 0.0 | 0.0 | 0.00 | 0.00 | 0.00 | 62 | 1013.2 |
| 20260504010904 | 8 | 360 | 0.0 | 1.6 | 0.00 | 0.00 | 0.00 | 61 | 1013.1 |
| 20260504010003 | 8 | 360 | 0.0 | 1.6 | 0.00 | 0.00 | 0.00 | 60 | 1013.1 |
| 20260504005403 | 8 | 0 | 0.0 | 0.0 | 0.00 | 0.00 | 0.00 | 57 | 1013.0 |
| 20260504004504 | 9 | 0 | 0.0 | 0.0 | 0.00 | 0.00 | 0.00 | 55 | 1012.9 |
| 20260504003604 | 10 | 0 | 0.0 | 0.0 | 0.00 | 0.00 | 0.00 | 53 | 1012.8 |
| 20260504002704 | 10 | 0 | 0.0 | 0.0 | 0.00 | 0.00 | 0.00 | 53 | 1012.5 |
| 20260504001804 | 11 | 0 | 0.0 | 0.0 | 0.00 | 0.00 | 0.00 | 51 | 1012.5 |
| 20260504000903 | 11 | 0 | 0.0 | 0.0 | 0.00 | 0.00 | 0.00 | 49 | 1012.4 |
| 20260504000003 | 12 | 360 | 1.6 | 4.8 | 0.00 | 0.00 | 0.00 | 47 | 1012.3 |
| 20260503235618 | 12 | 360 | 1.6 | 8.0 | 0.00 | 0.00 | 0.00 | 46 | 1012.3 |
| 20260503234504 | 13 | 360 | 1.6 | 6.4 | 0.00 | 0.00 | 0.00 | 44 | 1012.3 |
| 20260503233604 | 13 | 360 | 3.2 | 8.0 | 0.00 | 0.00 | 0.00 | 40 | 1012.2 |
| 20260503232920 | 13 | 360 | 4.8 | 14.5 | 0.00 | 0.00 | 0.00 | 39 | 1012.2 |
| 20260503232017 | 14 | 360 | 4.8 | 14.5 | 0.00 | 0.00 | 0.00 | 37 | 1012.2 |
| 20260503230904 | 15 | 360 | 4.8 | 14.5 | 0.00 | 0.00 | 0.00 | 35 | 1012.1 |
| 20260503230003 | 15 | 360 | 6.4 | 16.1 | 0.00 | 0.00 | 0.00 | 35 | 1012.0 |
| 20260503225403 | 15 | 360 | 6.4 | 17.7 | 0.00 | 0.00 | 0.00 | 35 | 1012.0 |
| 20260503224503 | 16 | 360 | 8.0 | 19.3 | 0.00 | 0.00 | 0.00 | 34 | 1012.0 |
| 20260503223604 | 16 | 360 | 9.7 | 24.1 | 0.00 | 0.00 | 0.00 | 33 | 1012.0 |
| 20260503222703 | 15 | 360 | 8.0 | 24.1 | 0.00 | 0.00 | 0.00 | 33 | 1012.0 |
| 20260503222017 | 15 | 360 | 9.7 | 20.9 | 0.00 | 0.00 | 0.00 | 35 | 1012.0 |
| 20260503220903 | 16 | 360 | 8.0 | 30.6 | 0.00 | 0.00 | 0.00 | 34 | 1012.0 |
| 20260503220003 | 16 | 360 | 11.3 | 24.1 | 0.00 | 0.00 | 0.00 | 36 | 1012.0 |
| 20260503215403 | 16 | 360 | 9.7 | 24.1 | 0.00 | 0.00 | 0.00 | 35 | 1012.0 |